Torna al catalogo

STARLINK-37141

AttivoComunicazioniVLEO
NORAD 68249·PAYLOAD·🇺🇸 United States

Lanciato Mar 17, 2026 da Vandenberg Space Force Base

Loading…

Prossimi Passaggi (prossime 24 ore)

TLE

AggiornatoSource: CelesTrak SupGP

Epoca: Sep 14, 2026, 23:12 UTC

1 68249C 26054T   26257.96715278 -.00043616  00000+0 -12888-2 0  2570
2 68249  53.1562 127.3872 0001291  92.0942   0.8457 15.34407468    19

Traccia STARLINK-37141 in tempo reale con AllMySat

Download on the App Store